Regional Weather Roundup
Issued by NWS

Home | Current Version | Previous Version | Text Only | Print | Product List | Glossary On
Versions: 1 2 3 4 5 6 7 8 9 10 11 12 13 14 15 16 17 18 19 20 21 22 23 24 25 26 27 28
000
ASUS44 KBMX 231010
RWRAL

ALABAMA REGIONAL WEATHER ROUNDUP
NATIONAL WEATHER SERVICE BIRMINGHAM AL
500 AM CDT MON APR 23 2018

NOTE: "FAIR" INDICATES FEW OR NO CLOUDS BELOW 12,000 FEET
WITH NO SIGNIFICANT WEATHER AND/OR OBSTRUCTIONS TO VISIBILITY.

THE REMARK "TC" DENOTES TEMPERATURE IN DEGREES CELSIUS.

ALZ001>011-014-016>018-020-231100-
NORTH ALABAMA

CITY           SKY/WX    TMP DP  RH WIND       PRES   REMARKS
MUSCLE SHOALS  CLOUDY    60  57  89 SE7       29.87R
HUNTSVILLE     CLOUDY    59  59 100 SE9       29.88S
DECATUR        MOCLDY    58  58 100 SE8       29.88S
HALEYVILLE     LGT RAIN  58  58 100 S7        29.90R FOG
GADSDEN        CLOUDY    59  59 100 CALM      29.93R
$$

ALZ012-013-022-023-030>036-040>044-231100-
WEST CENTRAL ALABAMA

CITY           SKY/WX    TMP DP  RH WIND       PRES   REMARKS
TUSCALOOSA     CLOUDY    60  59  96 SW5       29.90R
DEMOPOLIS      PTSUNNY  N/A N/A N/A CALM      29.90R FOG
$$

ALZ015-024>026-033>036-041>044-231100-
CENTRAL ALABAMA

CITY           SKY/WX    TMP DP  RH WIND       PRES   REMARKS
BIRMINGHAM     CLOUDY    60  58  92 SE5       29.93R
MONTGOMERY     FOG       59  59 100 CALM      29.91S VSB 3/4
SHELBY CO ARPT CLOUDY    60  60 100 S3        29.91S
MAXWELL AFB    MOCLDY    58  57  98 N3          N/A  FOG
GREENVILLE     MOCLDY    60  57  89 CALM      29.90S
SELMA          FOG       55  54  94 SE5       29.90S VSB 1/4
PRATTVILLE     CLOUDY    57  57 100 CALM      29.91R
BESSEMER       CLOUDY    59  59 100 S5        29.91S
TALLADEGA      CLOUDY    60  60  98 CALM      29.93S
PELL CITY      CLOUDY    61  61 100 CALM      29.93R
MARION         FOG       57  57 100 S3        29.90R VSB 1/4
SYLACAUGA      CLOUDY    60  60 100 CALM      29.92S
$$

ALZ019-021-028-029-037-038-045>048-231100-
EAST CENTRAL ALABAMA

CITY           SKY/WX    TMP DP  RH WIND       PRES   REMARKS
ANNISTON       CLOUDY    58  57  97 CALM      29.92S
ALEXANDER CITY MOCLDY    58  58 100 CALM      29.92S FOG
AUBURN         CLOUDY    59  59 100 CALM      29.94R
$$

ALZ051>064-231100-
SOUTHWEST ALABAMA

CITY           SKY/WX    TMP DP  RH WIND       PRES   REMARKS
MOBILE         MOCLDY    60  58  92 NW5       29.92R
BROOKLEY FIELD MOCLDY    62  60  93 NW9       29.93R
EVERGREEN      CLOUDY    59  57  93 CALM      29.92R FOG
$$

ALZ049-050-065>069-231100-
SOUTHEAST ALABAMA

CITY           SKY/WX    TMP DP  RH WIND       PRES   REMARKS
DOTHAN         CLOUDY    67  65  93 CALM      29.94S
OZARK          CLOUDY    67  67  99 SE5       29.90R
TROY           CLOUDY    60  60 100 CALM      29.92S
EUFAULA        FAIR      64  64 100 CALM      29.90F FOG
$$




USA.gov is the U.S. government's official web portal to all federal, state and local government web resources and services.